TimeCDT,TemperatureF,Dew PointF,Humidity,Sea Level PressureIn,VisibilityMPH,Wind Direction,Wind SpeedMPH,Gust SpeedMPH,PrecipitationIn,Events,Conditions,WindDirDegrees,DateUTC
12:15 AM,60.4,59.7,97,29.96,10.0,North,-9999.0,-,N/A,,Clear,0,2013-04-01 05:15:00
12:35 AM,60.1,59.7,99,29.96,10.0,North,-9999.0,-,N/A,,Clear,0,2013-04-01 05:35:00
12:55 AM,59.7,59.4,99,29.95,5.0,North,-9999.0,-,N/A,,Clear,0,2013-04-01 05:55:00
1:15 AM,59.2,59.0,99,29.95,7.0,North,-9999.0,-,N/A,,Clear,0,2013-04-01 06:15:00
1:35 AM,58.6,58.5,99,29.95,7.0,North,-9999.0,-,N/A,,Clear,0,2013-04-01 06:35:00
1:55 AM,59.4,59.2,99,29.96,7.0,North,-9999.0,-,N/A,,Clear,0,2013-04-01 06:55:00
2:15 AM,59.0,58.8,99,29.96,7.0,North,-9999.0,-,N/A,,Clear,0,2013-04-01 07:15:00
2:35 AM,59.9,59.7,99,29.96,5.0,North,-9999.0,-,N/A,,Clear,0,2013-04-01 07:35:00
3:15 AM,59.5,59.2,99,29.96,4.0,North,-9999.0,-,N/A,,Scattered Clouds,0,2013-04-01 08:15:00
3:35 AM,59.9,59.7,99,29.97,7.0,North,-9999.0,-,N/A,,Mostly Cloudy,0,2013-04-01 08:35:00
4:15 AM,61.2,61.0,99,29.98,7.0,North,-9999.0,-,N/A,,Overcast,0,2013-04-01 09:15:00
4:35 AM,61.7,61.3,99,29.98,7.0,North,-9999.0,-,N/A,,Overcast,0,2013-04-01 09:35:00
4:55 AM,62.1,61.7,99,29.99,7.0,North,-9999.0,-,N/A,,Overcast,0,2013-04-01 09:55:00
5:15 AM,62.2,61.7,98,30.00,5.0,North,-9999.0,-,N/A,,Overcast,0,2013-04-01 10:15:00
5:35 AM,62.6,61.9,97,30.01,3.0,North,-9999.0,-,N/A,,Overcast,0,2013-04-01 10:35:00
5:55 AM,62.6,62.2,99,30.02,2.0,North,-9999.0,-,N/A,,Overcast,0,2013-04-01 10:55:00
6:15 AM,63.0,62.8,99,30.02,1.2,North,-9999.0,-,N/A,,Overcast,0,2013-04-01 11:15:00
6:35 AM,63.1,63.0,99,30.03,1.2,North,-9999.0,-,N/A,,Overcast,0,2013-04-01 11:35:00
6:55 AM,63.1,63.0,99,30.03,2.0,North,-9999.0,-,N/A,,Overcast,0,2013-04-01 11:55:00
7:15 AM,63.1,63.0,99,30.04,1.8,North,-9999.0,-,N/A,,Overcast,0,2013-04-01 12:15:00
7:35 AM,63.1,63.1,100,30.04,1.8,North,-9999.0,-,N/A,,Overcast,0,2013-04-01 12:35:00
8:15 AM,63.7,63.5,99,30.06,1.8,North,-9999.0,-,N/A,,Overcast,0,2013-04-01 13:15:00
8:35 AM,63.9,63.7,99,30.07,1.8,North,-9999.0,-,N/A,,Overcast,0,2013-04-01 13:35:00
8:55 AM,64.4,63.9,98,30.07,2.0,North,-9999.0,-,N/A,,Overcast,0,2013-04-01 13:55:00
9:15 AM,64.6,64.2,99,30.08,2.0,North,-9999.0,-,N/A,,Overcast,0,2013-04-01 14:15:00
9:35 AM,65.3,64.4,97,30.08,2.5,North,-9999.0,-,N/A,,Overcast,0,2013-04-01 14:35:00
9:55 AM,65.3,64.4,97,30.08,3.0,North,-9999.0,-,N/A,,Overcast,0,2013-04-01 14:55:00
10:15 AM,66.4,64.9,95,30.08,3.0,North,-9999.0,-,N/A,,Overcast,0,2013-04-01 15:15:00
10:35 AM,68.0,65.3,91,30.08,4.0,North,-9999.0,-,N/A,,Overcast,0,2013-04-01 15:35:00
10:55 AM,68.9,65.7,89,30.08,5.0,North,-9999.0,-,N/A,,Overcast,0,2013-04-01 15:55:00
11:15 AM,68.9,65.7,89,30.09,5.0,North,-9999.0,-,N/A,,Overcast,0,2013-04-01 16:15:00
11:35 AM,69.6,65.7,87,30.08,5.0,North,-9999.0,-,N/A,,Overcast,0,2013-04-01 16:35:00
11:55 AM,70.2,64.4,82,30.08,7.0,North,-9999.0,-,N/A,,Overcast,0,2013-04-01 16:55:00
12:15 PM,71.4,64.4,78,30.08,7.0,North,-9999.0,-,N/A,,Overcast,0,2013-04-01 17:15:00
12:35 PM,71.8,63.7,76,30.07,7.0,North,-9999.0,-,N/A,,Overcast,0,2013-04-01 17:35:00
12:55 PM,73.2,64.4,74,30.06,10.0,North,-9999.0,-,N/A,,Mostly Cloudy,0,2013-04-01 17:55:00
1:15 PM,73.9,63.9,71,30.06,10.0,North,-9999.0,-,N/A,,Overcast,0,2013-04-01 18:15:00
1:35 PM,75.7,63.3,65,30.05,7.0,North,-9999.0,-,N/A,,Overcast,0,2013-04-01 18:35:00
2:15 PM,77.4,64.0,63,30.03,10.0,North,-9999.0,-,N/A,,Mostly Cloudy,0,2013-04-01 19:15:00
2:35 PM,76.6,63.3,63,30.02,10.0,North,-9999.0,-,N/A,,Overcast,0,2013-04-01 19:35:00
2:55 PM,77.4,63.1,61,30.01,10.0,North,-9999.0,-,N/A,,Mostly Cloudy,0,2013-04-01 19:55:00
3:15 PM,79.0,63.1,58,30.00,10.0,North,-9999.0,-,N/A,,Mostly Cloudy,0,2013-04-01 20:15:00
3:35 PM,77.2,63.0,61,30.00,5.0,North,-9999.0,-,N/A,,Haze,0,2013-04-01 20:35:00
3:55 PM,79.5,63.5,58,29.99,10.0,North,-9999.0,-,N/A,,Scattered Clouds,0,2013-04-01 20:55:00
4:15 PM,77.9,61.7,57,29.99,10.0,North,-9999.0,-,N/A,,Scattered Clouds,0,2013-04-01 21:15:00
4:35 PM,79.3,62.8,57,29.99,10.0,North,-9999.0,-,N/A,,Mostly Cloudy,0,2013-04-01 21:35:00
4:55 PM,78.1,62.1,58,29.98,10.0,North,-9999.0,-,N/A,,Mostly Cloudy,0,2013-04-01 21:55:00
5:15 PM,77.5,62.8,60,29.98,10.0,North,-9999.0,-,N/A,,Mostly Cloudy,0,2013-04-01 22:15:00
5:35 PM,76.1,61.9,61,29.98,10.0,North,-9999.0,-,N/A,,Scattered Clouds,0,2013-04-01 22:35:00
5:55 PM,77.4,61.5,58,29.97,10.0,North,-9999.0,-,N/A,,Clear,0,2013-04-01 22:55:00
6:15 PM,75.7,63.9,66,29.97,10.0,North,-9999.0,-,N/A,,Clear,0,2013-04-01 23:15:00
6:35 PM,74.8,63.5,68,29.97,10.0,North,-9999.0,-,N/A,,Clear,0,2013-04-01 23:35:00
6:55 PM,73.0,63.3,71,29.97,10.0,North,-9999.0,-,N/A,,Clear,0,2013-04-01 23:55:00
7:15 PM,71.4,62.2,73,29.98,10.0,North,-9999.0,-,N/A,,Clear,0,2013-04-02 00:15:00
7:35 PM,69.8,61.3,74,29.98,10.0,North,-9999.0,-,N/A,,Clear,0,2013-04-02 00:35:00
7:55 PM,68.5,60.8,76,29.98,10.0,North,-9999.0,-,N/A,,Clear,0,2013-04-02 00:55:00
8:15 PM,67.5,61.2,80,29.98,10.0,North,-9999.0,-,N/A,,Clear,0,2013-04-02 01:15:00
8:55 PM,66.2,61.3,84,29.99,10.0,North,-9999.0,-,N/A,,Clear,0,2013-04-02 01:55:00
9:15 PM,65.3,61.5,88,30.00,10.0,North,-9999.0,-,N/A,,Clear,0,2013-04-02 02:15:00
9:35 PM,64.6,62.2,92,30.01,10.0,North,-9999.0,-,N/A,,Clear,0,2013-04-02 02:35:00
9:55 PM,64.4,62.6,94,30.02,10.0,North,-9999.0,-,N/A,,Clear,0,2013-04-02 02:55:00
10:15 PM,64.0,62.6,95,30.02,10.0,North,-9999.0,-,N/A,,Clear,0,2013-04-02 03:15:00
10:35 PM,63.7,62.1,94,30.02,10.0,North,-9999.0,-,N/A,,Clear,0,2013-04-02 03:35:00
10:55 PM,63.5,62.2,96,30.02,10.0,North,-9999.0,-,N/A,,Clear,0,2013-04-02 03:55:00
11:15 PM,63.1,62.1,96,30.02,7.0,North,-9999.0,-,N/A,,Clear,0,2013-04-02 04:15:00
11:35 PM,62.6,61.7,97,30.02,7.0,North,-9999.0,-,N/A,,Clear,0,2013-04-02 04:35:00
11:55 PM,62.1,61.5,98,30.01,7.0,North,-9999.0,-,N/A,,Clear,0,2013-04-02 04:55:00